Date String (YYYY-MM-DD hh:mm:ss) UTC,Instrument flags,Ambient pressure (hPa),Sample flow (lpm),Bypass flow (lpm),Sample temperature (°C),Ambient temperature (°C),ASC tube jacket temperature (°C),LED temperature (°C),Box temperature (°C),Sample RH (%),Span deviation,Mass concentration (μg/m³),Mass concentration (μg/m³),Mass concentration (μg/m³)
DateTimeUTC,F1_M11,P_M11,Q1_M11,Q2_M11,T1_M11,T2_M11,T3_M11,T4_M11,T5_M11,U1_M11,ZSPAN_M11,X0_M11,X2_M11,X1_M11
2021-08-31 06:00:00,,0823.4,5.00,0.00,29.7,28.9,00.0,38.6,31.5,11.5,0002.0,0039.33,0029.24,0028.14
2021-08-31 06:01:00,,0823.4,5.01,0.00,29.8,28.3,00.0,38.7,31.4,11.5,0002.2,0038.76,0029.21,0028.11
2021-08-31 06:02:00,,0823.4,4.99,0.00,29.6,26.6,00.0,38.7,31.1,11.5,0002.1,0038.06,0029.15,0028.05
2021-08-31 06:03:00,,0823.4,5.01,0.00,29.5,26.5,00.0,38.6,31.0,11.6,0002.3,0037.68,0029.06,0027.99
2021-08-31 06:04:00,,0823.4,4.98,0.00,29.5,26.8,00.0,38.6,30.9,11.6,0002.4,0037.50,0028.99,0027.95
2021-08-31 06:05:00,,0823.4,5.00,0.00,29.4,27.1,00.0,38.6,31.0,11.7,0002.5,0037.60,0028.87,0027.84
2021-08-31 06:06:00,,0823.4,5.00,0.00,29.4,27.5,00.0,38.6,31.1,11.7,0002.6,0036.99,0028.82,0027.76
2021-08-31 06:07:00,,0823.4,5.01,0.00,29.5,27.8,00.0,38.6,31.2,11.7,0002.7,0036.69,0028.77,0027.69
2021-08-31 06:08:00,,0823.4,4.99,0.00,29.5,28.0,00.0,38.6,31.2,11.6,0002.9,0036.46,0028.73,0027.63
2021-08-31 06:09:00,,0823.4,4.99,0.00,29.5,28.1,00.0,38.6,31.3,11.6,0002.9,0036.47,0028.62,0027.53
2021-08-31 06:10:00,,0823.4,5.01,0.00,29.5,28.3,00.0,38.6,31.3,11.5,0002.9,0036.45,0028.55,0027.46
2021-08-31 06:11:00,,0823.4,5.00,0.00,29.6,28.4,00.0,38.6,31.4,11.5,0002.9,0035.66,0028.45,0027.36
2021-08-31 06:12:00,,0823.4,5.00,0.00,29.6,28.5,00.0,38.6,31.4,11.6,0002.8,0035.46,0028.40,0027.31
2021-08-31 06:13:00,,0823.4,4.99,0.00,29.6,28.6,00.0,38.6,31.4,11.5,0002.8,0035.04,0028.31,0027.25
2021-08-31 06:14:00,,0823.6,5.00,0.00,29.7,28.7,00.0,38.6,31.5,11.6,0002.6,0034.71,0028.25,0027.19
2021-08-31 06:15:00,,0823.6,5.02,0.00,29.7,28.8,00.0,38.7,31.5,12.1,0002.5,0034.65,0028.21,0027.16
2021-08-31 06:16:00,,0823.7,4.99,0.00,29.7,28.8,00.0,38.7,31.6,13.5,0002.5,0034.35,0028.31,0027.24
2021-08-31 06:17:00,,0823.6,5.01,0.00,29.8,28.9,00.0,38.7,31.6,13.7,0002.4,0035.00,0028.43,0027.36
2021-08-31 06:18:00,,0823.6,5.01,0.00,29.8,28.4,00.0,38.7,31.5,12.1,0002.5,0035.47,0028.48,0027.40
2021-08-31 06:19:00,,0823.6,5.00,0.00,29.7,26.6,00.0,38.7,31.1,11.8,0002.4,0035.42,0028.48,0027.42
2021-08-31 06:20:00,,0823.6,5.00,0.00,29.6,26.4,00.0,38.7,31.0,11.8,0002.4,0035.63,0028.53,0027.43
2021-08-31 06:21:00,,0823.6,5.01,0.00,29.5,26.7,00.0,38.7,31.0,12.2,0002.3,0035.82,0028.51,0027.41
2021-08-31 06:22:00,,0823.7,4.99,0.00,29.5,27.1,00.0,38.6,31.1,12.1,0002.2,0036.01,0028.51,0027.42
2021-08-31 06:23:00,,0823.6,5.01,0.00,29.5,27.5,00.0,38.6,31.1,12.5,0002.2,0036.09,0028.54,0027.50
2021-08-31 06:24:00,,0823.6,4.99,0.00,29.5,27.8,00.0,38.6,31.2,12.3,0002.3,0036.53,0028.65,0027.60
2021-08-31 06:25:00,,0823.7,5.01,0.00,29.5,28.0,00.0,38.6,31.3,12.2,0002.6,0036.73,0028.77,0027.72
2021-08-31 06:26:00,,0823.7,5.00,0.00,29.5,28.2,00.0,38.6,31.3,12.6,0002.4,0036.87,0028.86,0027.79
2021-08-31 06:27:00,,0823.7,5.00,0.00,29.6,28.4,00.0,38.6,31.3,14.6,0002.3,0037.79,0029.02,0027.90
2021-08-31 06:28:00,,0823.7,5.01,0.00,29.6,28.5,00.0,38.6,31.4,15.6,0002.3,0038.31,0029.07,0027.95
2021-08-31 06:29:00,,0823.7,5.00,0.00,29.6,28.6,00.0,38.7,31.4,15.2,0002.3,0038.02,0029.25,0028.11
2021-08-31 06:30:00,,0823.7,4.99,0.00,29.7,28.7,00.0,38.7,31.5,14.1,0002.1,0039.50,0029.57,0028.35
2021-08-31 06:31:00,,0823.7,5.02,0.00,29.7,28.8,00.0,38.7,31.5,14.1,0002.0,0041.43,0029.89,0028.63
2021-08-31 06:32:00,,0823.7,4.98,0.00,29.8,28.8,00.0,38.7,31.6,14.2,0002.1,0041.99,0030.25,0028.93
2021-08-31 06:33:00,,0823.7,5.01,0.00,29.8,28.9,00.0,38.7,31.6,14.2,0002.3,0043.09,0030.60,0029.20
2021-08-31 06:34:00,,0823.7,4.99,0.00,29.8,29.0,00.0,38.8,31.7,14.1,0002.5,0043.96,0030.88,0029.36
2021-08-31 06:35:00,,0823.6,5.01,0.00,29.8,28.6,00.0,38.8,31.5,13.9,0002.5,0044.58,0031.09,0029.54
2021-08-31 06:36:00,,0823.6,5.00,0.00,29.7,26.8,00.0,38.8,31.1,13.9,0002.3,0044.92,0031.32,0029.72
2021-08-31 06:37:00,,0823.7,5.00,0.00,29.6,26.4,00.0,38.8,31.0,13.7,0002.4,0046.14,0031.56,0029.90
2021-08-31 06:38:00,,0823.6,5.01,0.00,29.6,26.7,00.0,38.7,31.1,13.8,0002.4,0046.34,0031.62,0029.94
2021-08-31 06:39:00,,0823.7,5.00,0.00,29.5,27.1,00.0,38.7,31.1,13.6,0002.5,0046.55,0031.70,0029.93
2021-08-31 06:40:00,,0823.7,4.99,0.00,29.5,27.5,00.0,38.7,31.2,13.7,0002.5,0046.60,0031.69,0029.91
2021-08-31 06:41:00,,0823.7,5.00,0.00,29.5,27.8,00.0,38.7,31.2,14.0,0002.8,0046.39,0031.62,0029.85
2021-08-31 06:42:00,,0823.7,5.01,0.00,29.6,28.0,00.0,38.7,31.3,14.1,0002.9,0045.11,0031.50,0029.78
2021-08-31 06:43:00,,0823.7,4.99,0.00,29.6,28.2,00.0,38.7,31.3,14.1,0002.8,0045.98,0031.44,0029.72
2021-08-31 06:44:00,,0823.7,5.01,0.00,29.6,28.4,00.0,38.7,31.4,13.9,0002.7,0045.85,0031.35,0029.67
2021-08-31 06:45:00,,0823.7,5.00,0.00,29.6,28.5,00.0,38.7,31.4,13.9,0002.6,0046.32,0031.30,0029.62
2021-08-31 06:46:00,,0823.7,4.99,0.00,29.7,28.6,00.0,38.7,31.5,13.9,0002.7,0046.48,0031.30,0029.58
2021-08-31 06:47:00,,0823.7,5.00,0.00,29.7,28.7,00.0,38.7,31.5,14.0,0002.8,0046.70,0031.20,0029.50
2021-08-31 06:48:00,,0823.7,5.01,0.00,29.7,28.8,00.0,38.7,31.5,14.2,0003.0,0045.60,0031.11,0029.45
2021-08-31 06:49:00,,0823.7,5.01,0.00,29.8,28.8,00.0,38.7,31.6,14.2,0003.1,0044.72,0031.09,0029.44
2021-08-31 06:50:00,,0823.7,4.98,0.00,29.8,28.9,00.0,38.8,31.6,14.2,0003.0,0044.78,0031.09,0029.45
2021-08-31 06:51:00,,0823.7,5.01,0.00,29.8,29.0,00.0,38.8,31.7,14.1,0003.0,0045.10,0031.14,0029.47
2021-08-31 06:52:00,,0823.7,4.99,0.00,29.9,29.0,00.0,38.8,31.7,14.3,0002.9,0044.55,0031.18,0029.52
2021-08-31 06:53:00,,0823.8,5.01,0.00,29.8,27.9,00.0,38.8,31.4,14.5,0002.9,0044.68,0031.24,0029.53
2021-08-31 06:54:00,,0823.8,4.99,0.00,29.7,26.5,00.0,38.8,31.1,14.7,0002.9,0043.38,0031.17,0029.47
2021-08-31 06:55:00,,0823.7,5.01,0.00,29.6,26.6,00.0,38.8,31.0,14.9,0002.8,0042.62,0031.17,0029.43
2021-08-31 06:56:00,,0823.7,4.99,0.00,29.5,26.9,00.0,38.7,31.1,14.8,0002.7,0042.74,0031.12,0029.41
2021-08-31 06:57:00,,0823.7,5.01,0.00,29.5,27.3,00.0,38.7,31.1,15.0,0002.4,0043.04,0031.05,0029.35
2021-08-31 06:58:00,,0823.7,4.99,0.00,29.5,27.6,00.0,38.7,31.2,15.0,0002.3,0042.78,0031.06,0029.31
2021-08-31 06:59:00,,0823.7,5.00,0.00,29.5,27.9,00.0,38.7,31.3,15.1,0002.1,0043.29,0031.10,0029.28
